This is the latest recevied weather packets stored in our database for station/object WB4ZUT. If no packets are shown the sender has not sent any weather packets the latest 10 day(s).
| Time | Temp. | Humidity | Pressure | Rain* | Wind** | Luminosity | Snow |
|---|---|---|---|---|---|---|---|
| 1788141238 | 77° F | 82% | 762.7 mmHg | 0 in | - | 0 W/m² | - |
| 1788140933 | 78° F | 81% | 762.6 mmHg | 0 in | - | 0 W/m² | - |
| 1788140627 | 78° F | 81% | 762.6 mmHg | 0 in | - | 0 W/m² | - |
| 1788140324 | 78° F | 81% | 762.7 mmHg | 0 in | - | 0 W/m² | - |
| 1788140018 | 78° F | 79% | 762.4 mmHg | 0 in | - | 0 W/m² | - |
| 1788139712 | 79° F | 79% | 762.4 mmHg | 0 in | - | 0 W/m² | - |
| 1788139409 | 79° F | 78% | 762.4 mmHg | 0 in | - | 0 W/m² | - |
| 1788139108 | 79° F | 77% | 762.5 mmHg | 0 in | - | 0 W/m² | - |
| 1788138803 | 80° F | 77% | 762.4 mmHg | 0 in | - | 0 W/m² | - |
| 1788138499 | 81° F | 76% | 762.5 mmHg | 0 in | - | 0 W/m² | - |
| 1788138198 | 81° F | 73% | 762.2 mmHg | 0 in | - | 0 W/m² | - |
| 1788137894 | 81° F | 72% | 762.2 mmHg | 0 in | - | 0 W/m² | - |
| 1788137590 | 82° F | 70% | 762.3 mmHg | 0 in | - | 0 W/m² | - |
| 1788137284 | 82° F | 70% | 762.2 mmHg | 0 in | - | 0 W/m² | - |
| 1788136981 | 83° F | 69% | 762.3 mmHg | 0 in | - | 0 W/m² | - |
| 1788136676 | 84° F | 67% | 762.1 mmHg | 0 in | - | 0 W/m² | - |
| 1788136372 | 84° F | 68% | 762.4 mmHg | 0 in | - | 0 W/m² | - |
| 1788136071 | 85° F | 65% | 762.4 mmHg | 0 in | - | 0 W/m² | - |
| 1788135771 | 85° F | 64% | 762.1 mmHg | 0 in | - | 1 W/m² | - |
| 1788135467 | 86° F | 64% | 762.3 mmHg | 0 in | - | 3 W/m² | - |
| 1788135162 | 87° F | 61% | 762.1 mmHg | 0 in | - | 7 W/m² | - |
| 1788134858 | 87° F | 60% | 762.2 mmHg | 0 in | - | 11 W/m² | - |
| 1788134553 | 88° F | 59% | 762.4 mmHg | 0 in | - | 14 W/m² | - |
| 1788134252 | 89° F | 58% | 762.3 mmHg | 0 in | - | 16 W/m² | - |
| 1788133947 | 89° F | 57% | 762.4 mmHg | 0 in | - | 23 W/m² | - |
* Rain latest hour (hover to see other rain measurements)
** Current wind speed in m/s (hover to see current wind gust speed)